Location: *
(46.1006°N, 1.8394°E)
Time: 22:21:21
(UTC+00:00)

Daily predictions for brighter satellites

Satellite Brightness Start Highest point End
(mag) Time Altitude Azimuth Time Altitude Azimuth Time Altitude Azimuth
GP-B 3.6 18:14:44 10° NNE 18:18:56 39° E 18:23:05 10° SSE
NOAA 11 4.4 18:15:31 10° SE 18:20:49 51° ENE 18:26:08 10° N
Cosmos 1743 4.0 18:17:32 10° SSW 18:21:15 47° WNW 18:25:02 10° N
Cosmos 1536 Rocket 3.5 18:17:10 10° N 18:21:31 81° E 18:25:51 10° S
COSMOS 2428 2.7 18:15:53 10° NNW 18:21:35 72° ENE 18:27:15 10° SSE
Cosmos 2322 4.2 18:15:56 10° NNW 18:21:39 69° WSW 18:27:19 10° SSE
Cosmos 2360 Rocket 3.7 18:17:26 10° NW 18:22:43 41° WSW 18:27:58 10° S
NOSS 0 Rocket 4.3 18:17:58 10° NNW 18:23:59 49° NE 18:30:00 10° SE
Cosmos 1461 2.8 18:20:37 10° SW 18:24:39 89° NNW 18:28:38 10° NE
SL-8 R/B 3.8 18:20:50 10° WSW 18:25:38 84° NNW 18:30:28 10° ENE
SJ-6B 4.5 18:22:52 10° ESE 18:25:40 18° ENE 18:28:28 10° NNE
BREEZE-M DEB (TANK) 4.5 18:22:43 10° WNW 18:27:15 87° NNE 18:45:51 10° ESE
Cosmos 1544 3.4 18:25:09 10° SSE 18:28:32 42° E 18:31:58 10° NNE
NOSS 3-4 (A) 4.0 18:21:58 10° NW 18:28:53 64° NE 18:36:26 10° SE
YAOGAN 1 2.9 18:24:38 10° S 18:28:57 73° WSW 18:33:18 10° NNW
NOSS 3-4 (C) 4.0 18:22:05 10° NW 18:28:59 64° NE 18:36:32 10° SE
COSMOS 2455 3.6 18:23:34 10° NW 18:29:29 58° WSW 18:35:21 10° SSE
USA 32 4.2 18:24:49 10° N 18:30:04 83° W 18:35:19 10° S
COBE Rocket 4.4 18:25:07 10° N 18:30:08 72° WNW 18:35:15 10° SSW
Cosmos 389 Rocket 3.9 18:27:43 10° NNE 18:30:17 19° ENE 18:32:51 10° ESE
Aureole 1 Rocket 3.2 18:27:00 10° NNW 18:32:13 87° WSW 18:36:08 10° SSE
Ariane Rocket 3.0 18:27:37 10° SSE 18:32:36 62° ENE 18:37:37 10° N
CZ-2D R/B 3.2 18:29:47 10° SSE 18:33:33 68° ENE 18:37:20 10° N
DMSP B5D1-3 4.5 18:28:44 10° NNE 18:33:49 65° ESE 18:38:52 10° S
NOSS 3-3 (A) 4.5 18:31:58 10° SW 18:37:54 66° NW 18:44:37 10° NE
NOSS 3-3 (C) 4.5 18:32:05 10° SW 18:38:00 66° NW 18:44:44 10° NE
Cosmos 2227 Rocket 3.3 18:34:37 10° SSE 18:38:49 22° E 18:43:03 10° NE
ARGOS 4.4 18:35:33 10° ESE 18:39:41 23° ENE 18:43:50 10° N
Nadezhda 1 Rocket 3.9 18:35:23 10° S 18:41:21 65° E 18:47:23 10° NNE
Cosmos 2219 3.7 18:36:13 10° S 18:41:30 39° ESE 18:46:47 10° NE
HJ-1C 3.6 18:38:31 10° SSE 18:41:48 50° ENE 18:45:06 10° N
Cosmos 2327 Rocket 4.5 18:36:25 10° N 18:42:41 79° E 18:48:48 10° SSE
GEOS 3 Rocket 3.7 18:37:57 10° SE 18:42:58 62° NE 18:48:02 10° NNW
Cosmos 407 Rocket 4.0 18:38:25 10° N 18:43:16 40° ENE 18:48:05 10° SE
Cosmos 2056 Rocket 4.4 18:38:47 10° SSE 18:43:20 28° E 18:47:54 10° NE
Cosmos 1939 Rocket 2.7 18:39:34 10° SSE 18:43:24 76° ENE 18:47:17 10° N
USA 186 3.1 18:40:57 10° SE 18:43:46 25° ENE 18:46:39 10° NNE
Meteor 2-9 Rocket 4.4 18:38:10 10° SSW 18:43:55 82° W 18:49:35 10° N
Lacrosse 5 rocket 2.6 18:42:09 10° SSE 18:44:31 17° SE 18:46:00 14° E
ADEOS Rocket 4.3 18:39:41 10° NE 18:45:49 27° E 18:52:09 10° SE
Okean 1-7 Rocket 4.5 18:43:27 10° N 18:47:23 30° ENE 18:51:19 10° SE
Cosmos 2297 Rocket 3.0 18:44:32 10° SSE 18:49:14 28° ESE 18:53:58 10° NE
COSMO-SKYMED 1 4.4 18:46:39 10° N 18:50:38 36° WNW 18:54:36 10° SW
USA 234 4.3 18:47:14 10° NE 18:53:21 43° NNW 18:59:28 10° W
Meteor 1-4 Rocket 3.2 18:57:35 10° N 19:00:49 32° ENE 19:02:41 19° SE
Cosmos 405 Rocket 3.4 18:58:37 10° SSE 19:01:51 30° E 19:05:09 10° NNE
Cosmos 1140 Rocket 3.9 19:00:01 10° N 19:04:57 42° ENE 19:08:26 18° SE
Cosmos 1437 Rocket 4.1 19:02:15 10° NNE 19:05:06 20° ENE 19:05:42 19° E
CZ-2C R/B 4.3 19:04:56 18° E 19:07:30 26° ENE 19:11:57 10° N
ASTEX 1 3.3 19:05:23 10° N 19:10:16 66° E 19:15:07 10° S
ATLAS 2AS CENTAUR R/B 3.4 19:04:52 10° NW 19:12:23 60° WSW 19:19:14 10° SSE
In-Cosmos 22 4.2 19:07:28 10° N 19:12:47 59° ENE 19:18:12 10° SSE
EO 1 Delta rocket 4.4 19:06:43 10° SSE 19:13:25 76° ENE 19:18:44 10° N
Cosmos 2084 Rocket 4.0 19:09:30 10° S 19:13:36 37° ESE 19:17:39 10° NE
Cosmos 1544 Rocket 4.4 19:11:23 18° SE 19:13:46 29° E 19:17:37 10° NNE
Cosmos 1455 Rocket 3.7 19:10:08 10° SSE 19:14:08 35° E 19:18:12 10° NNE
Cosmos 2333 Rocket 3.3 19:09:25 10° NW 19:14:52 46° WSW 19:20:17 10° S
SPOT 3 Rocket 3.6 19:10:34 10° SSE 19:15:32 59° ENE 19:20:37 10° N
Cosmos 1441 Rocket 4.3 19:13:29 10° SSW 19:17:09 47° WNW 19:20:50 10° N
Meteor 1-24 Rocket 4.5 19:13:10 10° N 19:18:26 34° ENE 19:21:13 23° ESE
Cosmos 2237 Rocket 2.2 19:14:01 10° NNW 19:19:46 81° ENE 19:24:31 15° SSE
SJ-11-01 4.2 19:17:32 10° SSE 19:22:17 85° ENE 19:27:04 10° NNW
ERBS 3.6 19:19:41 10° NW 19:22:42 29° NNE 19:23:37 25° ENE
Cosmos 1674 3.7 19:19:29 10° NNE 19:22:42 27° ENE 19:22:42 27° ENE
FAST 4.5 19:22:13 10° S 19:25:20 83° W 19:27:57 10° N
ISS -3.5 19:22:43 10° SW 19:25:55 47° SE 19:26:20 44° ESE
Cosmos 1371 Rocket 3.9 19:21:01 10° SSW 19:26:18 76° ESE 19:31:41 10° NNE
Cosmos 2341 Rocket 3.9 19:21:39 10° N 19:27:56 85° E 19:34:09 10° S
Cosmos 2181 Rocket 4.0 19:22:28 10° S 19:28:35 61° E 19:34:50 10° NNE
Cosmos 1980 3.7 19:23:43 10° NNW 19:29:25 82° WSW 19:34:07 15° SSE
Cosmos 1805 4.3 19:30:39 27° ENE 19:30:39 27° ENE 19:33:11 10° NNE
RESURS DK-1 4.2 19:27:41 10° N 19:30:29 17° NE 19:30:49 17° NE
Cosmos 1626 Rocket 4.4 19:29:25 10° N 19:33:15 30° ENE 19:33:19 30° ENE
CZ-2C R/B 3.6 19:31:15 10° NNE 19:35:44 86° W 19:40:08 10° SSW
Cosmos 1452 Rocket 4.5 19:38:51 27° ENE 19:38:51 27° ENE 19:42:11 10° NE
Cosmos 676 Rocket 4.0 19:33:36 10° NNW 19:38:51 65° ENE 19:41:12 32° SE
FREGAT/IRIS 4.3 19:37:16 11° SSW 19:39:42 31° W 19:42:17 10° NNW
Cosmos 1707 4.3 19:39:28 10° NNW 19:43:06 37° W 19:46:44 10° SSW
Resurs 1-3 3.7 19:42:46 42° ESE 19:43:53 56° ENE 19:48:12 10° N
Meteor 2-17 Rocket 4.4 19:38:28 10° N 19:44:35 89° W 19:50:24 11° S
Cosmos 2218 Rocket 4.0 19:38:19 10° N 19:44:43 70° E 19:49:01 21° SSE
Meteor 2-5 Rocket 3.7 19:39:09 10° N 19:45:00 74° ENE 19:48:44 24° SSE
H-2A R/B 1.8 19:42:42 26° SSE 19:45:34 79° ENE 19:50:39 10° NNW
Cosmos 2366 rocket 4.0 19:40:20 10° N 19:46:42 68° E 19:50:40 24° SSE
Cosmos 864 Rocket 4.4 19:42:40 10° N 19:48:54 67° E 19:52:28 27° SSE
KORONAS-FOTON 4.2 19:46:09 10° N 19:49:22 45° NE 19:49:22 45° NE
SL-16 R/B 2.3 19:45:38 10° NNW 19:51:16 58° ENE 19:52:58 41° ESE
Cosmos 1023 Rocket 4.5 19:46:59 10° NNW 19:52:09 79° WSW 19:54:45 30° SSE
Cosmos 2219 Rocket 4.3 19:48:43 10° NW 19:53:03 23° WSW 19:57:23 10° SSW
Resurs 01 Rocket 1.7 19:53:03 51° E 19:53:30 54° ENE 19:57:51 10° N
Cosmos 1602 Rocket 4.2 19:50:21 10° N 19:53:54 37° NE 19:53:54 37° NE
Meteor 1-22 Rocket 4.4 19:51:40 19° SSE 19:56:02 57° E 20:02:00 10° NNE
SL-8 Rocket 4.0 19:50:01 10° N 19:56:14 84° W 20:01:19 16° S
SJ-6B 3.9 19:57:07 17° SSW 19:59:59 46° W 20:03:57 10° NNW
CZ-2C R/B 4.2 19:56:35 10° NE 19:58:59 21° ENE 19:58:59 21° ENE
SL-08 RB Rocket 3.6 20:01:13 53° SSE 20:02:17 80° ENE 20:06:59 10° N
Cosmos 2082 3.6 20:00:22 10° SSW 20:06:02 68° ESE 20:11:45 10° NNE
SL-8 R/B 3.9 20:03:39 10° W 20:08:25 66° N 20:09:16 55° NE
Cosmos 1959 Rocket 4.5 20:03:17 10° N 20:09:26 81° W 20:13:13 25° S
Cosmos 1850 Rocket 4.2 20:06:19 10° NNW 20:11:22 49° ENE 20:11:24 49° ENE
MetOp-B 4.4 20:12:35 49° ENE 20:12:41 49° ENE 20:17:50 10° N
DELTA 2 R/B (1) 4.1 20:07:44 10° WSW 20:12:47 41° S 20:12:47 41° S
Cosmos 1626 4.4 20:10:47 10° NNE 20:11:44 16° NNE 20:11:44 16° NNE
USA 186 4.3 20:12:34 13° SW 20:14:40 21° W 20:17:23 10° NW
Cosmos 1766 3.5 20:15:14 67° NNW 20:15:14 67° NNW 20:18:46 10° N
ARGOS 3.6 20:16:39 27° S 20:19:32 58° W 20:24:52 10° NNW
Cosmos 2227 Rocket 2.6 20:16:46 10° SW 20:22:22 62° WNW 20:28:01 10° NNE
Lacrosse 5 rocket 2.4 20:19:34 10° WSW 20:21:44 34° WSW 20:21:44 34° WSW
Cosmos 1420 Rocket 4.0 20:24:51 10° SSW 20:30:09 83° WNW 20:35:32 10° NNE
ADEOS Rocket 3.7 20:24:25 10° N 20:31:45 72° WNW 20:39:28 10° SSW
Cosmos 2297 Rocket 3.0 20:27:31 10° SW 20:33:00 50° WNW 20:38:31 10° NNE
BREEZE M DEB (TANK) 3.1 20:31:16 10° WNW 20:33:28 54° NNW 20:33:28 54° NNW
USA 234 4.5 20:31:34 19° NE 20:35:28 34° N 20:41:13 10° WNW
MetOp-A 4.5 20:36:53 49° SSW 20:38:02 60° W 20:43:21 10° NNW
ERS-1 Rocket 4.2 20:40:43 31° NNE 20:40:43 31° NNE 20:43:51 10° N
Cosmos 1437 Rocket 4.4 20:38:03 10° NNW 20:41:07 30° W 20:41:07 30° W
Cosmos 1741 Rocket 4.1 20:36:17 10° NNW 20:41:12 74° N 20:41:12 74° N
Meteor 2-12 Rocket 4.4 20:38:46 10° N 20:44:34 70° ENE 20:44:34 70° ENE
CZ-2C R/B 3.7 20:46:00 46° SW 20:46:59 52° W 20:52:24 10° NNW
Spot 2 Rocket 3.7 20:49:00 67° NW 20:49:00 67° NW 20:53:28 10° NNW
DMSP B5D2-2 4.2 20:46:33 10° N 20:51:28 71° NNW 20:51:28 71° NNW
Cosmos 1943 4.1 20:47:33 10° NNW 20:51:54 38° NNE 20:51:54 38° NNE
Cosmos 1934 Rocket 4.4 20:49:56 10° N 20:54:51 50° NE 20:54:51 50° NE
SPOT 5 4.5 21:07:32 29° N 21:07:32 29° N 21:10:06 10° N
RESURS DK-1 4.5 21:04:49 10° NW 21:06:43 26° NW 21:06:43 26° NW
Nadezhda 3 Rocket 4.4 21:23:39 59° WNW 21:23:39 59° WNW 21:29:41 10° N
Resurs 01 Rocket 4.1 21:30:38 17° W 21:30:38 17° W 21:33:11 10° NW
Terra 3.9 21:33:20 22° N 21:33:20 22° N 21:35:03 10° N
SL-16 R/B 4.0 21:30:31 10° NW 21:34:52 24° W 21:34:52 24° W
CZ-2C R/B 3.8 21:36:26 10° N 21:40:29 41° NNW 21:40:29 41° NNW
CZ-4C R/B 4.0 21:44:28 10° NNW 21:50:29 32° NNE 21:50:38 32° NE
USA 234 4.1 22:18:55 44° N 22:18:55 44° N 22:23:54 10° NW
CZ-4C R/B 4.3 23:32:43 10° NW 23:35:47 30° NW 23:35:47 30° NW
